SCP
0 0 0 0 0 0 0 0 0 0 0 0 0 0 0 0 0 0 0 0 0 0 0 0 0 0 0 0 0 0 0 0 0 0 0 0 0 0 0 0 0 0 0 0
0 0 0 0 0 0 0 0 0 0 0 0 0 0 0 0 0 0 0 0 0 0 0 0 0 0 0 0 0 0 0 0 0 0 0 0 0 0 0 0 0 0 0 0
0 0 0 0 0 0 0 0 0 0 0 0 0 0 0 0 0 0 0 0 0 0 0 0 0 0 0 0 0 0 0 0 0 0 0 0 0 0 0 0 0 0 0 0
0 0 0 0 0 0 0 0 0 0 0 0 0 0 0 0 0 0 0 0 0 0 0 0 0 0 0 0 0 0 0 0 0 0 0 0 0 0 0 0 0 0 0 0
0 0 0 0 0 0 0 0 0 0 0 0 0 0 0 0 0 0 0 0 0 0 0 0 0 0 0 0 0 0 0 0 0 0 0 0 0 0 0 0 0 0 0 0
0 0 0 0 0 0 0 0 0 0 0 0 0 0 0 0 0 0 0 0 0 0 0 0 0 0 0 0 0 0 0 0 0 0 0 0 0 0 0 0 0 0 0 0
0 0 0 0 0 0 0 0 0 0 0 0 0 0 0 0 0 0 0 0 0 0 0 0 0 0 0 0 0 0 0 0 0 0 0 0 0 0 0 0 0 0 0 0
0 0 0 0 0 0 0 0 0 0 0 0 0 0 0 0 0 0 0 0 0 0 0 0 0 0 0 0 0 0 0 0 0 0 0 0 0 0 0 0 0 0 0 0
0 0 0 0 0 0 0 0 0 0 0 0 0 0 0 0 0 0 0 0 0 0 0 0 0 0 0 0 0 0 0 0 0 0 0 0 0 0 0 0 0 0 0 0
0 0 0 0 0 0 0 0 0 0 0 0 0 0 0 0 0 0 0 0 0 0 0 0 0 0 0 0 0 0 0 0 0 0 0 0 0 0 0 0 0 0 0 0
0 0 0 0 0 0 0 0 0 0 0 0 0 0 0 0 0 0 0 0 0 0 0 0 0 0 0 0 0 0 0 0 0 0 0 0 0 0 0 0 0 0 0 0
0 0 0 0 0 0 0 0 0 0 0 0 0 0 0 0 0 0 0 0 0 0 0 0 0 0 0 0 0 0 0 0 0 0 0 0 0 0 0 0 0 0 0 0
0 0 0 0 0 0 0 0 0 0 0 0 0 0 0 0 0 0 0 0 0 0 0 0 0 0 0 0 0 0 0 0 0 0 0 0 0 0 0 0 0 0 0 0
0 0 0 0 0 0 0 0 0 0 0 0 0 0 0 0 0 0 0 0 0 0 0 0 0 0 0 0 0 0 0 0 0 0 0 0 0 0 0 0 0 0 0 0
0 0 0 0 0 0 0 0 0 0 0 0 0 0 0 0 0 0 0 0 0 0 0 0 0 0 0 0 0 0 0 0 0 0 0 0 0 0 0 0 0 0 0 0
0 0 0 0 0 0 0 0 0 0 0 0 0 0 0 0 0 0 0 0 0 0 0 0 0 0 0 0 0 0 0 0 0 0 0 0 0 0 0 0 0 0 0 0
0 0 0 0 0 0 0 0 0 0 0 0 0 0 0 0 0 0 0 0 0 0 0 0 0 0 0 0 0 0 0 0 0 0 0 0 0 0 0 0 0 0 0 0
0 0 0 0 0 0 0 0 0 0 0 0 0 0 0 0 0 0 0 0 0 0 0 0 0 0 0 0 0 0 0 0 0 0 0 0 0 0 0 0 0 0 0 0
0 -0 0 0 0 0 0 0 0 0 0 0 0 0 0 0 0 0 0 0 0 0 0 0 0 0 0 0 0 0 0 0 0 0 0 0 0 0 0 0 0 0 0 0
-0 0 0 0 0 0 0 0 0 0 0 0 0 0 0 0 0 0 0 0 0 0 0 0 0 0 0 0 0 0 0 0 0 0 0 0 0 0 0 0 0 0 0 0
0 0 0 0 0 0 0 0 0 0 0 0 0 0 0 0 0 0 0 0 0 0 0 0 0 0 0 0 0 0 0 0 0 0 0 0 0 0 0 0 0 0 0 0
0 0 0 0 0 0 0 0 0 0 0 0 0 0 0 0 0 0 0 0 0 0 0 0 0 0 0 0 0 0 0 0 0 0 0 0 0 0 0 0 0 0 -0 -0
0 0 0 0 0 0 0 0 0 0 0 0 0 0 0 0 0 0 0 0 0 0 0 0 0 0 0 0 0 0 0 0 0 0 0 0 0 0 0 -0 -0 -0 -0 0
0 0 0 0 0 0 0 0 0 0 0 0 0 0 0 0 0 0 0 0 0 0 0 0 0 0 0 0 0 0 0 0 0 0 0 -0 -0 -0 -0 0 0 0 0 0
0 0 0 0 0 0 0 0 0 0 0 0 0 0 0 0 0 0 0 0 0 0 0 0 0 0 0 0 0 0 0 0 0 0 0 0 0 0 0 0 0 0 0 0
0 0 0 0 0 0 0 0 0 0 0 0 0 0 0 0 0 0 0 0 0 0 0 0 0 0 0 0 0 0 0 0 0 0 0 0 0 0 0 0 0 0 0 0
0 0 0 0 0 0 0 0 0 0 0 0 0 0 0 0 0 0 0 0 0 0 0 0 0 0 0 0 0 -0 -0 -0 0 0 0 0 -0 -0 0 -0 -0 -0 0 -0
Wind_Speed_500mb
28 25 25 27 32 32 26 9 2 2 23 4 2 4 7 3 5 4 5 5 4 4 4 5 4 7 3 9 5 8 3 4 5 3 9 5 4 5 6 6 5 0 4 9
28 25 22 22 26 30 31 20 4 4 23 6 4 4 3 3 5 5 2 3 2 4 5 5 2 6 3 12 5 8 11 2 7 7 5 5 4 5 7 8 2 10 9 5
31 25 22 18 18 20 22 9 2 4 6 6 6 4 2 2 6 1 4 4 3 6 4 6 8 5 8 6 9 10 5 5 5 13 4 3 7 11 12 6 7 8 17 21
35 27 22 17 13 13 12 5 2 2 3 5 5 2 1 1 3 9 9 4 3 8 6 3 5 3 6 7 4 6 2 5 4 4 5 6 10 17 18 21 17 15 18 19
36 29 24 18 11 7 4 1 4 5 4 2 5 4 2 2 3 7 4 5 3 3 7 5 12 9 6 3 5 5 4 5 4 6 6 13 21 25 23 25 24 28 32 36
38 32 27 20 13 6 4 5 4 4 4 3 5 4 4 4 1 4 7 2 4 7 5 9 12 9 9 6 5 6 3 9 7 16 1 6 18 33 36 30 22 21 25 29
41 35 30 23 16 11 9 9 8 4 4 2 4 6 2 4 5 1 5 6 2 6 12 13 9 7 4 1 3 3 10 9 6 8 4 21 8 8 14 22 26 24 24 16
42 38 32 26 20 15 11 11 8 7 5 3 5 7 2 2 4 3 1 6 6 14 7 3 2 1 2 1 7 1 2 7 6 9 18 24 27 11 7 13 27 21 22 17
43 39 34 29 23 18 15 12 11 7 10 9 8 7 2 3 3 4 3 5 7 6 4 3 9 9 3 6 4 12 8 4 10 7 10 13 4 3 17 3 22 13 18 14
43 40 36 31 27 22 18 15 13 8 5 12 12 5 5 8 4 2 1 1 5 5 5 7 9 11 3 10 10 9 7 5 16 18 16 14 10 11 7 13 8 10 8 10
43 40 37 33 30 25 22 19 16 11 6 11 13 12 10 9 7 5 6 6 5 3 9 8 7 9 11 7 4 8 13 10 9 6 11 18 3 3 10 6 5 6 7 9
43 40 38 35 32 27 23 19 17 13 7 5 10 16 21 16 12 6 8 1 3 5 5 4 3 5 5 6 9 3 10 10 7 13 5 2 5 6 4 1 3 4 6 7
44 41 39 36 33 28 24 19 17 12 5 10 15 20 29 31 31 25 10 8 9 8 8 6 2 8 5 9 10 8 6 8 7 4 6 13 10 9 9 4 2 2 6 12
44 42 39 36 31 27 23 20 16 12 4 2 4 11 8 13 16 29 38 9 12 11 10 4 4 5 8 5 4 9 5 11 9 9 11 7 14 18 14 19 19 21 19 24
45 42 39 37 33 26 20 13 10 13 9 2 4 7 12 15 17 18 30 38 18 10 7 6 6 3 6 4 3 13 21 20 18 25 27 21 21 25 29 34 33 33 42 43
47 46 45 42 33 22 14 3 14 18 19 4 4 6 5 11 15 17 26 38 23 12 9 6 5 7 6 6 7 19 29 45 47 38 35 34 32 28 24 32 38 35 35 38
52 50 47 36 23 16 8 7 4 21 19 4 5 3 2 3 14 16 24 31 13 10 9 9 6 7 10 5 18 14 29 31 26 32 38 25 32 28 33 39 48 48 49 48
62 53 43 32 26 26 22 14 15 24 11 2 3 2 4 5 6 8 13 11 13 7 6 5 7 7 7 10 31 41 36 33 33 32 34 38 41 52 52 52 51 52 49 47
53 44 37 38 32 14 22 25 19 21 6 5 5 4 5 3 5 7 6 9 6 5 9 8 11 7 12 23 28 27 31 24 26 28 36 40 34 32 28 26 27 27 33 36
56 53 15 11 18 41 33 11 11 11 9 6 5 4 3 3 3 4 6 2 2 5 5 8 8 10 53 50 42 43 41 43 37 31 28 18 20 23 25 27 29 34 45 53
38 12 9 44 43 13 6 7 5 4 4 6 5 11 2 2 1 4 1 3 2 5 5 5 6 7 15 19 21 24 23 23 25 28 27 27 30 34 39 45 50 54 60 66
22 35 51 30 9 6 6 5 5 6 4 8 7 7 6 4 4 3 2 2 3 7 5 5 6 9 14 21 26 15 13 16 20 26 34 38 44 46 53 61 71 72 74 73
59 15 10 9 5 5 10 13 6 5 11 13 11 7 6 5 3 6 3 5 6 2 6 7 10 13 23 22 24 17 18 24 31 38 43 52 62 66 68 80 81 78 78 68
9 8 8 6 7 7 5 6 7 7 13 18 15 9 4 3 3 2 4 1 4 6 7 10 11 16 24 23 18 21 26 34 47 58 66 71 74 80 78 77 72 69 66 63
8 7 6 5 5 7 10 9 12 13 23 19 13 10 4 3 3 3 2 5 9 10 8 5 9 14 19 22 32 48 58 62 67 70 70 68 68 67 65 62 66 67 69 69
6 6 8 8 10 7 7 9 9 18 21 15 8 6 4 5 3 6 11 6 12 7 7 14 20 30 48 55 65 68 66 67 60 59 68 72 69 73 72 69 68 66 61 68
6 6 12 13 14 12 9 11 9 20 12 4 5 7 5 6 6 7 8 10 16 33 34 36 40 49 60 64 67 70 62 63 67 69 73 76 70 66 71 70 66 63 59 49
Wind_Direction_500mb
277 289 305 322 336 345 342 350 208 269 170 113 28 182 195 286 298 286 239 117 109 140 133 108 126 148 64 344 176 149 97 118 128 40 326 263 242 143 160 254 244 70 332 267
265 277 293 316 336 351 353 342 286 45 177 177 194 250 253 261 335 347 9 125 48 59 97 114 117 97 17 13 86 153 171 84 151 139 154 189 224 132 108 102 150 212 251 225
257 267 282 301 328 345 350 346 254 48 151 107 143 154 39 321 1 121 25 102 115 117 105 38 139 132 25 28 84 94 125 132 222 267 342 103 207 203 183 211 223 234 241 269
252 254 267 281 313 334 344 348 80 90 90 64 92 57 120 90 17 5 21 92 93 143 136 120 138 162 151 81 45 56 39 204 209 252 252 219 254 248 212 224 241 238 272 259
244 247 251 262 280 307 305 261 174 118 92 80 134 353 90 112 28 2 19 136 109 72 162 191 184 168 211 160 83 79 11 174 175 258 218 228 250 255 246 238 241 246 261 271
236 239 242 245 254 265 215 196 164 130 5 98 153 143 139 112 327 76 36 50 112 93 77 76 84 83 97 124 161 128 149 150 169 265 329 286 264 242 244 245 241 244 248 270
232 231 233 234 234 227 213 209 183 158 147 181 137 146 100 74 19 339 27 42 96 130 126 102 83 63 11 196 85 76 147 154 178 272 252 257 293 307 264 259 264 243 251 255
225 225 224 224 223 215 205 195 184 170 140 156 174 168 108 1 33 113 48 37 103 144 143 115 106 120 265 96 52 270 182 157 198 249 251 287 279 258 255 255 275 258 242 244
219 219 217 215 213 208 198 188 180 175 143 206 138 148 152 180 160 146 125 94 144 147 78 161 205 236 202 211 176 56 126 203 225 173 243 263 63 123 348 302 270 301 234 247
214 213 211 210 207 204 201 199 195 174 143 169 160 168 163 158 137 163 237 174 158 155 150 187 214 231 197 225 219 192 160 164 214 222 244 268 254 306 310 238 325 345 308 247
211 209 207 204 202 199 199 200 196 186 179 179 198 201 181 160 177 189 145 156 191 119 190 209 190 225 200 209 218 199 225 205 203 194 236 265 77 185 231 3 356 326 340 215
207 204 203 200 196 196 197 202 202 200 209 198 190 219 226 217 205 170 197 230 152 160 141 196 145 190 193 203 230 169 237 238 249 219 248 54 260 247 202 93 330 342 318 301
203 199 198 195 192 192 195 197 191 191 225 266 255 249 241 237 235 226 210 224 195 179 157 139 119 238 183 220 225 243 224 191 235 227 199 226 209 200 193 200 183 344 314 290
198 194 191 187 185 186 185 184 186 192 172 259 248 218 199 220 235 225 216 203 174 156 149 144 182 233 201 227 300 247 248 175 231 245 264 245 228 226 246 265 256 265 276 298
193 187 182 175 173 170 165 175 197 204 211 204 277 274 232 235 227 224 216 215 209 181 167 179 214 202 210 190 254 237 224 236 241 258 281 265 272 272 279 262 263 273 298 296
185 178 173 170 168 161 156 150 230 209 206 218 260 245 203 226 220 217 207 198 208 187 170 176 209 225 223 238 244 251 248 252 257 269 279 285 293 293 276 272 285 295 292 290
175 171 169 171 177 197 206 177 200 182 171 187 275 260 184 163 161 155 173 185 187 175 168 200 210 197 202 242 252 248 253 256 257 285 292 284 282 283 296 291 292 293 291 284
184 182 180 189 209 199 170 149 152 161 157 199 263 240 175 151 165 153 167 170 185 190 180 177 204 174 219 251 242 259 270 266 269 270 275 279 292 292 290 290 290 289 288 288
165 175 172 152 157 135 140 132 149 172 162 195 213 217 130 52 105 117 136 168 190 199 219 209 184 186 225 237 244 251 253 245 265 280 287 289 290 295 308 315 317 302 303 305
160 148 93 100 126 132 119 101 161 176 215 217 228 189 145 53 122 109 153 149 188 228 181 151 220 243 251 258 260 269 264 263 269 269 265 262 282 301 304 306 307 305 302 301
136 113 109 134 130 112 104 125 176 170 212 209 196 199 150 126 188 110 23 140 159 248 132 251 213 247 253 282 289 293 272 260 247 243 256 274 282 291 294 293 294 294 295 293
124 124 122 119 129 139 157 152 142 204 193 187 180 169 170 138 131 176 132 237 189 253 122 244 248 247 274 295 307 295 259 251 256 264 273 281 286 285 286 289 293 290 290 289
122 95 128 162 149 139 188 170 170 191 180 176 166 139 139 122 121 88 199 230 245 325 227 241 261 288 298 312 308 282 269 278 286 288 287 288 289 290 286 288 290 287 285 283
109 131 121 199 168 203 185 161 132 145 137 139 141 112 96 111 122 88 244 54 274 250 246 242 265 299 304 309 289 296 297 297 297 295 294 292 291 290 289 287 286 285 282 280
110 129 112 161 109 98 144 140 118 116 140 129 112 89 94 80 147 209 290 222 237 232 239 246 259 301 304 300 300 302 301 300 296 294 293 292 294 292 290 290 294 297 293 291
80 72 105 101 122 116 115 131 122 145 150 131 107 114 142 200 228 192 218 237 229 239 226 272 288 292 300 302 304 302 300 299 296 297 297 303 298 294 297 302 299 299 293 295
69 86 99 107 99 101 106 111 116 152 144 141 149 183 195 130 222 229 218 233 272 298 296 297 295 297 299 301 301 302 299 298 300 299 303 306 306 301 299 296 304 304 304 301
Wind_Speed_850mb
28 25 25 27 32 32 26 9 2 2 23 4 2 4 7 3 5 4 5 5 4 4 4 5 4 7 3 9 5 8 3 4 5 3 9 5 4 5 6 6 5 0 4 9
28 25 22 22 26 30 31 20 4 4 23 6 4 4 3 3 5 5 2 3 2 4 5 5 2 6 3 12 5 8 11 2 7 7 5 5 4 5 7 8 2 10 9 5
31 25 22 18 18 20 22 9 2 4 6 6 6 4 2 2 6 1 4 4 3 6 4 6 8 5 8 6 9 10 5 5 5 13 4 3 7 11 12 6 7 8 17 21
35 27 22 17 13 13 12 5 2 2 3 5 5 2 1 1 3 9 9 4 3 8 6 3 5 3 6 7 4 6 2 5 4 4 5 6 10 17 18 21 17 15 18 19
36 29 24 18 11 7 4 1 4 5 4 2 5 4 2 2 3 7 4 5 3 3 7 5 12 9 6 3 5 5 4 5 4 6 6 13 21 25 23 25 24 28 32 36
38 32 27 20 13 6 4 5 4 4 4 3 5 4 4 4 1 4 7 2 4 7 5 9 12 9 9 6 5 6 3 9 7 16 1 6 18 33 36 30 22 21 25 29
41 35 30 23 16 11 9 9 8 4 4 2 4 6 2 4 5 1 5 6 2 6 12 13 9 7 4 1 3 3 10 9 6 8 4 21 8 8 14 22 26 24 24 16
42 38 32 26 20 15 11 11 8 7 5 3 5 7 2 2 4 3 1 6 6 14 7 3 2 1 2 1 7 1 2 7 6 9 18 24 27 11 7 13 27 21 22 17
43 39 34 29 23 18 15 12 11 7 10 9 8 7 2 3 3 4 3 5 7 6 4 3 9 9 3 6 4 12 8 4 10 7 10 13 4 3 17 3 22 13 18 14
43 40 36 31 27 22 18 15 13 8 5 12 12 5 5 8 4 2 1 1 5 5 5 7 9 11 3 10 10 9 7 5 16 18 16 14 10 11 7 13 8 10 8 10
43 40 37 33 30 25 22 19 16 11 6 11 13 12 10 9 7 5 6 6 5 3 9 8 7 9 11 7 4 8 13 10 9 6 11 18 3 3 10 6 5 6 7 9
43 40 38 35 32 27 23 19 17 13 7 5 10 16 21 16 12 6 8 1 3 5 5 4 3 5 5 6 9 3 10 10 7 13 5 2 5 6 4 1 3 4 6 7
44 41 39 36 33 28 24 19 17 12 5 10 15 20 29 31 31 25 10 8 9 8 8 6 2 8 5 9 10 8 6 8 7 4 6 13 10 9 9 4 2 2 6 12
44 42 39 36 31 27 23 20 16 12 4 2 4 11 8 13 16 29 38 9 12 11 10 4 4 5 8 5 4 9 5 11 9 9 11 7 14 18 14 19 19 21 19 24
45 42 39 37 33 26 20 13 10 13 9 2 4 7 12 15 17 18 30 38 18 10 7 6 6 3 6 4 3 13 21 20 18 25 27 21 21 25 29 34 33 33 42 43
47 46 45 42 33 22 14 3 14 18 19 4 4 6 5 11 15 17 26 38 23 12 9 6 5 7 6 6 7 19 29 45 47 38 35 34 32 28 24 32 38 35 35 38
52 50 47 36 23 16 8 7 4 21 19 4 5 3 2 3 14 16 24 31 13 10 9 9 6 7 10 5 18 14 29 31 26 32 38 25 32 28 33 39 48 48 49 48
62 53 43 32 26 26 22 14 15 24 11 2 3 2 4 5 6 8 13 11 13 7 6 5 7 7 7 10 31 41 36 33 33 32 34 38 41 52 52 52 51 52 49 47
53 44 37 38 32 14 22 25 19 21 6 5 5 4 5 3 5 7 6 9 6 5 9 8 11 7 12 23 28 27 31 24 26 28 36 40 34 32 28 26 27 27 33 36
56 53 15 11 18 41 33 11 11 11 9 6 5 4 3 3 3 4 6 2 2 5 5 8 8 10 53 50 42 43 41 43 37 31 28 18 20 23 25 27 29 34 45 53
38 12 9 44 43 13 6 7 5 4 4 6 5 11 2 2 1 4 1 3 2 5 5 5 6 7 15 19 21 24 23 23 25 28 27 27 30 34 39 45 50 54 60 66
22 35 51 30 9 6 6 5 5 6 4 8 7 7 6 4 4 3 2 2 3 7 5 5 6 9 14 21 26 15 13 16 20 26 34 38 44 46 53 61 71 72 74 73
59 15 10 9 5 5 10 13 6 5 11 13 11 7 6 5 3 6 3 5 6 2 6 7 10 13 23 22 24 17 18 24 31 38 43 52 62 66 68 80 81 78 78 68
9 8 8 6 7 7 5 6 7 7 13 18 15 9 4 3 3 2 4 1 4 6 7 10 11 16 24 23 18 21 26 34 47 58 66 71 74 80 78 77 72 69 66 63
8 7 6 5 5 7 10 9 12 13 23 19 13 10 4 3 3 3 2 5 9 10 8 5 9 14 19 22 32 48 58 62 67 70 70 68 68 67 65 62 66 67 69 69
6 6 8 8 10 7 7 9 9 18 21 15 8 6 4 5 3 6 11 6 12 7 7 14 20 30 48 55 65 68 66 67 60 59 68 72 69 73 72 69 68 66 61 68
6 6 12 13 14 12 9 11 9 20 12 4 5 7 5 6 6 7 8 10 16 33 34 36 40 49 60 64 67 70 62 63 67 69 73 76 70 66 71 70 66 63 59 49
Wind_Direction_850mb
277 289 305 322 336 345 342 350 208 269 170 113 28 182 195 286 298 286 239 117 109 140 133 108 126 148 64 344 176 149 97 118 128 40 326 263 242 143 160 254 244 70 332 267
265 277 293 316 336 351 353 342 286 45 177 177 194 250 253 261 335 347 9 125 48 59 97 114 117 97 17 13 86 153 171 84 151 139 154 189 224 132 108 102 150 212 251 225
257 267 282 301 328 345 350 346 254 48 151 107 143 154 39 321 1 121 25 102 115 117 105 38 139 132 25 28 84 94 125 132 222 267 342 103 207 203 183 211 223 234 241 269
252 254 267 281 313 334 344 348 80 90 90 64 92 57 120 90 17 5 21 92 93 143 136 120 138 162 151 81 45 56 39 204 209 252 252 219 254 248 212 224 241 238 272 259
244 247 251 262 280 307 305 261 174 118 92 80 134 353 90 112 28 2 19 136 109 72 162 191 184 168 211 160 83 79 11 174 175 258 218 228 250 255 246 238 241 246 261 271
236 239 242 245 254 265 215 196 164 130 5 98 153 143 139 112 327 76 36 50 112 93 77 76 84 83 97 124 161 128 149 150 169 265 329 286 264 242 244 245 241 244 248 270
232 231 233 234 234 227 213 209 183 158 147 181 137 146 100 74 19 339 27 42 96 130 126 102 83 63 11 196 85 76 147 154 178 272 252 257 293 307 264 259 264 243 251 255
225 225 224 224 223 215 205 195 184 170 140 156 174 168 108 1 33 113 48 37 103 144 143 115 106 120 265 96 52 270 182 157 198 249 251 287 279 258 255 255 275 258 242 244
219 219 217 215 213 208 198 188 180 175 143 206 138 148 152 180 160 146 125 94 144 147 78 161 205 236 202 211 176 56 126 203 225 173 243 263 63 123 348 302 270 301 234 247
214 213 211 210 207 204 201 199 195 174 143 169 160 168 163 158 137 163 237 174 158 155 150 187 214 231 197 225 219 192 160 164 214 222 244 268 254 306 310 238 325 345 308 247
211 209 207 204 202 199 199 200 196 186 179 179 198 201 181 160 177 189 145 156 191 119 190 209 190 225 200 209 218 199 225 205 203 194 236 265 77 185 231 3 356 326 340 215
207 204 203 200 196 196 197 202 202 200 209 198 190 219 226 217 205 170 197 230 152 160 141 196 145 190 193 203 230 169 237 238 249 219 248 54 260 247 202 93 330 342 318 301
203 199 198 195 192 192 195 197 191 191 225 266 255 249 241 237 235 226 210 224 195 179 157 139 119 238 183 220 225 243 224 191 235 227 199 226 209 200 193 200 183 344 314 290
198 194 191 187 185 186 185 184 186 192 172 259 248 218 199 220 235 225 216 203 174 156 149 144 182 233 201 227 300 247 248 175 231 245 264 245 228 226 246 265 256 265 276 298
193 187 182 175 173 170 165 175 197 204 211 204 277 274 232 235 227 224 216 215 209 181 167 179 214 202 210 190 254 237 224 236 241 258 281 265 272 272 279 262 263 273 298 296
185 178 173 170 168 161 156 150 230 209 206 218 260 245 203 226 220 217 207 198 208 187 170 176 209 225 223 238 244 251 248 252 257 269 279 285 293 293 276 272 285 295 292 290
175 171 169 171 177 197 206 177 200 182 171 187 275 260 184 163 161 155 173 185 187 175 168 200 210 197 202 242 252 248 253 256 257 285 292 284 282 283 296 291 292 293 291 284
184 182 180 189 209 199 170 149 152 161 157 199 263 240 175 151 165 153 167 170 185 190 180 177 204 174 219 251 242 259 270 266 269 270 275 279 292 292 290 290 290 289 288 288
165 175 172 152 157 135 140 132 149 172 162 195 213 217 130 52 105 117 136 168 190 199 219 209 184 186 225 237 244 251 253 245 265 280 287 289 290 295 308 315 317 302 303 305
160 148 93 100 126 132 119 101 161 176 215 217 228 189 145 53 122 109 153 149 188 228 181 151 220 243 251 258 260 269 264 263 269 269 265 262 282 301 304 306 307 305 302 301
136 113 109 134 130 112 104 125 176 170 212 209 196 199 150 126 188 110 23 140 159 248 132 251 213 247 253 282 289 293 272 260 247 243 256 274 282 291 294 293 294 294 295 293
124 124 122 119 129 139 157 152 142 204 193 187 180 169 170 138 131 176 132 237 189 253 122 244 248 247 274 295 307 295 259 251 256 264 273 281 286 285 286 289 293 290 290 289
122 95 128 162 149 139 188 170 170 191 180 176 166 139 139 122 121 88 199 230 245 325 227 241 261 288 298 312 308 282 269 278 286 288 287 288 289 290 286 288 290 287 285 283
109 131 121 199 168 203 185 161 132 145 137 139 141 112 96 111 122 88 244 54 274 250 246 242 265 299 304 309 289 296 297 297 297 295 294 292 291 290 289 287 286 285 282 280
110 129 112 161 109 98 144 140 118 116 140 129 112 89 94 80 147 209 290 222 237 232 239 246 259 301 304 300 300 302 301 300 296 294 293 292 294 292 290 290 294 297 293 291
80 72 105 101 122 116 115 131 122 145 150 131 107 114 142 200 228 192 218 237 229 239 226 272 288 292 300 302 304 302 300 299 296 297 297 303 298 294 297 302 299 299 293 295
69 86 99 107 99 101 106 111 116 152 144 141 149 183 195 130 222 229 218 233 272 298 296 297 295 297 299 301 301 302 299 298 300 299 303 306 306 301 299 296 304 304 304 301